TimeEST,TemperatureF,Dew PointF,Humidity,Sea Level PressureIn,VisibilityMPH,Wind Direction,Wind SpeedMPH,Gust SpeedMPH,PrecipitationIn,Events,Conditions,WindDirDegrees,DateUTC
12:12 AM,42.8,41.0,93,30.15,3.0,Calm,Calm,-,N/A,,Overcast,0,2012-11-10 05:12:00
12:54 AM,43.0,41.0,93,30.18,4.0,Calm,Calm,-,N/A,,Overcast,0,2012-11-10 05:54:00
1:03 AM,42.8,41.0,93,30.16,4.0,Calm,Calm,-,N/A,,Overcast,0,2012-11-10 06:03:00
1:49 AM,42.8,41.0,93,30.16,4.0,ENE,4.6,-,N/A,,Overcast,60,2012-11-10 06:49:00
1:54 AM,43.0,41.0,93,30.18,4.0,ENE,4.6,-,N/A,,Overcast,70,2012-11-10 06:54:00
2:54 AM,43.0,42.1,97,30.19,3.0,ENE,3.5,-,N/A,,Overcast,70,2012-11-10 07:54:00
3:52 AM,42.8,42.8,100,30.17,3.0,ENE,3.5,-,N/A,,Overcast,70,2012-11-10 08:52:00
3:54 AM,43.0,42.1,97,30.19,3.0,ENE,3.5,-,N/A,,Overcast,70,2012-11-10 08:54:00
4:05 AM,42.8,42.8,100,30.17,3.0,ENE,3.5,-,N/A,,Overcast,70,2012-11-10 09:05:00
4:21 AM,44.6,42.8,93,30.17,4.0,East,10.4,-,N/A,,Overcast,80,2012-11-10 09:21:00
4:54 AM,43.0,39.9,89,30.21,10.0,East,12.7,18.4,N/A,,Overcast,90,2012-11-10 09:54:00
5:54 AM,43.0,39.0,86,30.20,10.0,East,12.7,20.7,N/A,,Overcast,90,2012-11-10 10:54:00
6:54 AM,43.0,39.9,89,30.21,10.0,East,13.8,-,N/A,,Overcast,90,2012-11-10 11:54:00
7:24 AM,42.8,39.2,87,30.19,10.0,East,18.4,26.5,N/A,,Overcast,100,2012-11-10 12:24:00
7:54 AM,42.1,39.0,89,30.22,10.0,ESE,16.1,24.2,N/A,,Overcast,110,2012-11-10 12:54:00
8:18 AM,42.8,39.2,87,30.19,10.0,East,13.8,20.7,N/A,,Overcast,100,2012-11-10 13:18:00
8:54 AM,42.1,39.0,89,30.21,10.0,ESE,12.7,20.7,N/A,,Overcast,110,2012-11-10 13:54:00
9:54 AM,42.1,41.0,96,30.19,4.0,ESE,12.7,21.9,0.01,Rain,Light Rain,110,2012-11-10 14:54:00
10:54 AM,42.1,41.0,96,30.22,3.0,ESE,12.7,-,0.10,Rain,Rain,110,2012-11-10 15:54:00
11:08 AM,42.8,41.0,93,30.20,2.0,ESE,11.5,21.9,0.04,Rain,Rain,110,2012-11-10 16:08:00
11:32 AM,42.8,41.0,93,30.18,3.0,East,11.5,-,0.08,Rain,Rain,100,2012-11-10 16:32:00
11:54 AM,43.0,41.0,93,30.17,5.0,East,11.5,21.9,0.10,Rain,Light Rain,100,2012-11-10 16:54:00
12:54 PM,43.0,42.1,97,30.14,4.0,East,15.0,21.9,0.03,Rain,Light Rain,100,2012-11-10 17:54:00
1:54 PM,43.0,42.1,97,30.11,4.0,East,15.0,21.9,0.01,Rain,Light Rain,100,2012-11-10 18:54:00
2:15 PM,44.6,42.8,93,30.08,2.5,ESE,16.1,-,0.00,,Overcast,120,2012-11-10 19:15:00
2:54 PM,44.1,43.0,96,30.08,1.8,ESE,13.8,23.0,0.00,,Overcast,110,2012-11-10 19:54:00
3:54 PM,45.0,43.0,93,30.07,1.2,ESE,11.5,-,0.00,Rain,Light Rain,110,2012-11-10 20:54:00
4:54 PM,45.0,44.1,97,30.05,1.5,ESE,15.0,-,0.00,Rain,Light Rain,120,2012-11-10 21:54:00
5:06 PM,46.4,44.6,93,30.03,2.5,SE,12.7,25.3,0.00,,Overcast,130,2012-11-10 22:06:00
5:36 PM,46.4,44.6,93,30.01,1.8,SE,15.0,19.6,0.00,,Overcast,130,2012-11-10 22:36:00
5:54 PM,46.0,45.0,96,30.03,1.8,SE,13.8,-,0.00,,Overcast,130,2012-11-10 22:54:00
6:14 PM,46.4,44.6,93,30.01,1.5,ESE,13.8,24.2,0.07,Rain-Thunderstorm,Light Thunderstorms and Rain,120,2012-11-10 23:14:00
6:31 PM,46.4,44.6,93,30.01,2.0,SE,13.8,-,0.12,Thunderstorm,Overcast,130,2012-11-10 23:31:00
6:54 PM,46.9,45.0,93,30.04,2.0,ESE,12.7,-,0.13,Thunderstorm,Overcast,120,2012-11-10 23:54:00
7:05 PM,46.4,44.6,93,30.02,2.0,SE,11.5,-,N/A,,Overcast,130,2012-11-11 00:05:00
7:54 PM,46.9,46.0,97,30.00,2.5,ESE,10.4,-,0.02,Rain,Light Rain,120,2012-11-11 00:54:00
8:43 PM,46.4,46.4,100,29.98,3.0,SE,10.4,-,0.00,,Overcast,130,2012-11-11 01:43:00
8:54 PM,46.9,46.0,97,30.00,2.5,SE,10.4,-,0.00,,Overcast,130,2012-11-11 01:54:00
9:05 PM,46.4,44.6,93,29.97,2.5,SE,10.4,-,N/A,,Mostly Cloudy,130,2012-11-11 02:05:00
9:21 PM,46.4,44.6,93,29.97,2.5,SE,8.1,-,N/A,,Scattered Clouds,130,2012-11-11 02:21:00
9:54 PM,45.0,45.0,100,29.99,2.5,SE,4.6,-,N/A,,Clear,140,2012-11-11 02:54:00
10:54 PM,43.0,43.0,100,29.96,1.5,East,3.5,-,N/A,,Clear,90,2012-11-11 03:54:00
11:02 PM,42.8,42.8,100,29.94,0.2,East,3.5,-,N/A,Fog,Fog,80,2012-11-11 04:02:00
11:26 PM,44.6,42.8,93,29.93,0.8,ESE,3.5,-,N/A,,Mist,110,2012-11-11 04:26:00
11:33 PM,42.8,42.8,100,29.93,1.0,ESE,3.5,-,N/A,,Mist,110,2012-11-11 04:33:00
11:49 PM,42.8,42.8,100,29.92,0.5,ESE,3.5,-,N/A,Fog,Fog,110,2012-11-11 04:49:00
11:54 PM,42.1,41.0,96,29.94,0.8,East,3.5,-,N/A,,Clear,100,2012-11-11 04:54:00